#timestamp,LO_Frequency,Hit 
1502154015.5,286047002.8,N
1502154035.4,286047001.5,N
1502154055.2,286047002.2,N
1502154075.0,286047001.5,N
1502154075.9,286047001.5,N
1502154095.7,286047003.4,N
1502154115.6,286047005.4,N
1502154135.4,286047007.6,P
1502154155.3,286047005.2,N
1502154175.1,286047005.9,N
1502154176.0,286047005.9,N
1502154195.8,286047002.9,N
1502154215.7,286047005.8,P
1502154235.5,286046999.3,N
1502154255.3,286046995.3,N
1502154275.2,286046994.6,N
1502154295.9,286046993.3,N
1502154315.7,286046994.2,N
1502154335.5,286046992.5,N
1502154355.4,286046991.3,N
1502154375.2,286046992.7,N
1502154395.0,286046994.3,N
1502154395.9,286046994.3,N
1502154415.8,286046994.2,N
1502154435.6,286046991.8,N
1502154455.4,286046994.2,N
1502154475.3,286046994.0,N
1502154495.1,286046995.6,N
1502154515.8,286046995.3,N
1502154535.7,286046997.1,N
1502154555.5,286046995.5,N
1502154575.3,286046997.0,N
1502154595.2,286047002.4,N
1502154615.9,286047003.4,N
1502154635.7,286047005.0,N
1502154655.5,286047004.1,N
1502154675.4,286047003.9,N
1502154695.2,286047004.2,N
1502154715.0,286047001.5,N
1502154715.9,286047001.5,N
1502154735.8,286047001.6,N
1502154755.6,286047002.7,N
1502154775.4,286047000.2,N
1502154795.3,286046997.3,N
1502154815.1,286046998.5,N
1502154816.0,286046998.5,N
1502154835.8,286046997.8,N
1502154855.7,286046996.2,N
1502154875.5,286046996.2,N
1502154895.3,286046995.1,N
1502154915.2,286046997.0,N
1502154935.9,286046999.0,N
1502154955.7,286047000.4,N
1502154975.5,286047003.4,N
1502154995.4,286047001.7,N
1502155015.2,286047001.2,N
1502155035.0,286047001.0,N
1502155035.9,286047001.0,N
1502155055.8,286047001.2,N
1502155075.6,286047000.5,N
1502155095.4,286047002.7,N
1502155115.3,286047002.6,N
1502155135.1,286047003.9,N
1502155155.8,286047002.8,N
1502155175.7,286046998.5,N
1502155195.5,286046999.0,N
1502155215.3,286046999.0,N
1502155235.2,286046999.7,N
1502155255.9,286047001.7,N
1502155275.7,286047002.1,N
1502155295.6,286047002.7,N
1502155315.4,286046998.4,N
1502155335.2,286047000.3,N
1502155355.0,286047002.0,N
1502155356.0,286047002.0,N
1502155375.8,286046998.4,N
1502155395.6,286047001.2,N
1502155415.4,286047000.9,N
1502155435.3,286047000.0,N
1502155455.1,286047002.4,N
1502155475.8,286047000.6,N
1502155495.7,286046999.7,N
1502155515.5,286047002.4,N
1502155535.3,286047004.4,N
1502155555.2,286047002.1,N
1502155575.9,286047000.0,N
1502155595.7,286046998.5,N
1502155615.6,286047001.2,N
1502155635.4,286047000.5,N
1502155655.2,286047000.3,N
1502155675.1,286046998.2,N
1502155676.0,286046998.2,N
1502155695.8,286046998.6,N
1502155715.6,286047001.0,N
1502155735.4,286047000.3,N
1502155755.3,286047000.3,N
1502155775.1,286047002.1,N
1502155795.8,286046999.9,N
1502155815.7,286047000.4,N
1502155835.5,286046999.3,N
1502155855.3,286046999.5,N
1502155875.2,286046998.0,N
1502155895.9,286046999.4,N
1502155915.7,286046998.9,N
1502155935.6,286046997.0,N
1502155955.4,286046994.9,P
1502155975.2,286047000.7,N
1502155995.1,286047002.7,N
1502155996.0,286047002.7,N
1502156015.8,286047000.3,N
1502156035.6,286047001.8,N
1502156055.5,286047001.4,N
1502156075.3,286047004.0,N
1502156095.1,286047001.5,N
1502156115.9,286047000.4,N
1502156135.7,286047000.9,N
1502156155.5,286047000.2,N
1502156175.3,286047001.6,N
1502156195.2,286047005.8,N
1502156215.0,286047004.3,N
1502156215.9,286047004.3,N
1502156235.7,286047004.1,N
1502156255.6,286047003.6,N
1502156275.4,286047004.8,N
1502156295.2,286047004.2,N
1502156315.1,286047003.1,N
1502156316.0,286047003.1,N
1502156335.8,286047005.9,N
1502156355.6,286047005.5,N
1502156375.5,286047003.9,N
1502156395.3,286047000.5,N
1502156415.1,286047000.4,N
1502156435.9,286047000.8,N
1502156455.7,286046998.3,N
1502156475.5,286046996.7,N
1502156495.4,286046998.9,N
1502156515.2,286046998.1,N
1502156535.0,286046999.9,N
1502156535.9,286046999.9,N
1502156555.7,286047000.2,N
1502156575.6,286047001.3,N
1502156595.4,286047002.9,N
1502156615.2,286047003.3,N
1502156635.1,286047006.6,N
1502156636.0,286047006.6,N
1502156655.8,286047010.9,P
1502156675.7,286047009.7,N
1502156695.5,286047008.5,N
1502156715.3,286047010.5,P
1502156735.2,286047000.4,N
1502156755.9,286046999.1,N
1502156775.7,286046997.6,N
1502156795.6,286046995.3,N
1502156815.4,286046995.8,N
1502156835.2,286046995.6,N
1502156855.0,286046997.3,N
1502156855.9,286046997.3,N
1502156875.8,286046997.6,N
1502156895.6,286046996.1,N
1502156915.4,286046993.3,N
1502156935.3,286046994.1,N
1502156955.1,286046994.6,N
1502156975.8,286046994.3,N
1502156995.7,286046993.2,N
1502157015.5,286046986.9,N
1502157035.3,286046991.4,N
1502157055.2,286046990.3,N
1502157075.9,286046991.1,N
1502157095.7,286046988.9,N
1502157115.5,286046989.7,N
1502157135.4,286046989.7,N
1502157155.2,286046989.5,N
1502157175.0,286046988.5,N
1502157175.9,286046988.5,N
1502157195.8,286046988.9,N
1502157215.6,286046989.0,N
1502157235.4,286046988.5,N
1502157255.3,286046987.4,N
1502157275.1,286046989.3,N
1502157276.0,286046989.3,N
1502157295.8,286046987.2,P
1502157315.7,286046998.3,N
1502157335.5,286047000.4,N
1502157355.3,286047000.6,N
1502157375.2,286046998.3,N
1502157395.9,286046999.0,N
1502157415.7,286046998.8,N
1502157435.6,286046997.3,N
1502157455.4,286046997.8,N
1502157475.2,286046994.9,N
1502157495.1,286046997.9,N
1502157496.0,286046997.9,N
1502157515.8,286046994.0,N
1502157535.6,286046998.0,N
1502157555.5,286046996.9,N
1502157575.3,286046997.4,N
1502157595.1,286046999.1,N
